Simultaneous Nadir Overpasses (SNOs) Predictions

Prediction of SNOs between METOP-A and TERRA Satellite Orbit:

Table of predicted SNOs for the next 14.0 days since TLE Epoch: 6/2/2017
Index Date (METOP-A) Time (METOP-A) Lat,Lon (METOP-A) SZA (METOP-A ) Date (TERRA) Time (TERRA) Lat,Lon (TERRA) SZA (TERRA ) Distance(km) Time Diff (sec)
1 06/02/2017 21:42:28 -81.34, 82.17 117.93 06/02/2017 21:43:10 -81.34, 82.16 117.91 0.18 42
2 06/02/2017 22:33:08 81.35,-110.08 62.13 06/02/2017 22:32:36 81.34,-110.09 62.11 0.16 32
3 06/05/2017 17:16:49 -81.34, 148.58 118.26 06/05/2017 17:17:26 -81.33, 148.47 118.26 2.08 37
4 06/05/2017 18:07:29 81.35, -43.68 61.79 06/05/2017 18:06:52 81.34, -43.81 61.75 2.37 37
5 06/08/2017 12:51:10 -81.34,-145.02 118.54 06/08/2017 12:51:41 -81.34,-144.89 118.51 2.28 31
6 06/08/2017 13:41:50 81.34, 22.70 61.51 06/08/2017 13:41:07 81.35, 22.81 61.50 1.81 43
7 06/11/2017 08:25:31 -81.34, -78.64 118.78 06/11/2017 08:25:57 -81.33, -78.67 118.78 1.06 26
8 06/11/2017 09:16:10 81.35, 89.46 61.32 06/11/2017 09:15:22 81.35, 89.38 61.29 1.38 48
9 06/14/2017 03:59:51 -81.34, -12.27 118.96 06/14/2017 04:00:11 -81.34, -12.11 118.94 2.65 20




NCC Satellite Simultaneous Nadir Overpasses (SNOs) Prediction Service
